Location: Buckenweiler
(49.0667°N, 10.2500°E)
Time: 15:58:23
(UTC+00:00)

Cosmos 44 - Pass Details

Date: 18 January 2026
Orbit: 570 x 780 km, 65.1° (Epoch: 10 February)

Event Time Altitude Azimuth Distance (km) Brightness Sun altitude
Exits shadow 04:08:38 61° 27° (NNE) 881 3.8 -28.5°
Maximum altitude 04:08:58 62° 47° (NE) 870 3.8 -28.4°
Drops below altitude 10° 04:14:18 10° 128° (SE) 2,329 6.6 -27.5°
Sets 04:16:45 0° 132° (SE) 3,249 7.4 -27.1°
